Location: Zihuatanejo
(17.6330°N, 101.5500°W)
Time: 09:53:05
(UTC-05:00)

Daily predictions for brighter satellites

Satellite Brightness Start Highest point End
(mag) Time Altitude Azimuth Time Altitude Azimuth Time Altitude Azimuth
Cosmos 158 Rocket 4.2 20:20:50 10° NNW 20:26:11 84° WSW 20:31:25 10° S
DELTA 2 R/B (1) 4.1 20:21:08 10° NW 20:26:26 46° NE 20:31:44 10° ESE
Cosmos 1300 2.6 20:23:28 10° S 20:27:15 67° E 20:31:02 10° N
Meteor 2-10 4.5 20:22:49 10° S 20:28:31 80° W 20:34:16 10° N
MOS 1 4.3 20:25:51 10° SSE 20:31:32 75° ENE 20:37:13 10° N
Cosmos 1346 Rocket 3.3 20:27:48 10° SSW 20:31:49 66° W 20:35:51 10° N
Cosmos 2058 3.1 20:27:44 10° N 20:31:56 78° W 20:36:07 10° S
Cosmos 2360 Rocket 4.3 20:30:09 10° SW 20:35:07 32° WNW 20:40:06 10° N
CZ-3C R/B 3.8 20:33:46 10° SW 20:36:35 16° S 20:42:10 10° SE
Aureole 1 Rocket 4.0 20:39:38 10° NW 20:42:31 36° WSW 20:45:52 10° S
Cosmos 2333 Rocket 2.3 20:39:11 10° S 20:44:40 51° ESE 20:50:08 10° NNE
COSMOS 2428 3.1 20:44:07 10° SSW 20:49:49 72° WNW 20:55:31 10° NNE
Cosmos 1455 3.5 20:49:44 16° ESE 20:51:16 20° E 20:54:05 10° NE
Cosmos 2221 3.6 20:47:17 10° SSW 20:51:25 48° W 20:55:31 10° N
ERS-2 3.7 20:54:08 17° E 20:54:31 17° ENE 20:56:59 10° NNE
FengYun 1-2 T 4.2 20:49:30 10° SSE 20:55:03 78° ENE 21:00:40 10° N
NOSS 3-3 (A) 4.4 20:52:13 10° SW 20:57:58 62° WNW 21:04:01 10° NNE
NOSS 3-3 (C) 4.4 20:52:18 10° SW 20:58:04 63° WNW 21:04:07 10° NNE
NOSS 3-1 (A) 4.2 20:49:51 10° NNW 20:58:10 85° ENE 21:06:54 10° SSE
Cosmos 2219 Rocket 2.3 20:57:33 10° SSW 21:03:13 83° WNW 21:08:52 10° NNE
Cosmos 2237 Rocket 2.5 20:58:39 10° S 21:03:50 39° ESE 21:09:01 10° NE
Cosmos 1844 Rocket 4.0 21:01:47 10° NNE 21:05:49 20° ENE 21:06:44 19° E
Cosmos 2263 Rocket 2.9 21:02:43 10° NNW 21:08:13 54° WSW 21:13:40 10° S
Cosmos 2154 Rocket 3.9 21:02:41 10° S 21:08:58 74° E 21:15:12 10° N
YAOGAN 6 4.4 21:12:23 18° NE 21:12:23 18° NE 21:13:56 10° NNE
Cosmos 1328 Rocket 4.0 21:08:37 18° SSE 21:11:23 38° E 21:15:27 10° NNE
ATLAS 2A CENTAUR R/B 3.9 20:42:07 10° WNW 21:12:27 76° NNE 21:16:12 26° E
Cosmos 494 Rocket 4.2 21:07:36 10° N 21:12:39 50° ENE 21:15:28 25° SE
KM-V1 3.7 21:10:29 10° SW 21:12:32 41° SSW 21:12:32 41° SSW
Resurs 01 Rocket 3.1 21:16:04 21° ENE 21:16:04 21° ENE 21:18:47 10° NNE
Hubble Space Telescope 2.7 21:12:54 10° S 21:14:31 15° SSE 21:14:31 15° SSE
Cosmos 1805 Rocket 3.5 21:13:45 10° N 21:18:01 60° E 21:20:09 28° SSE
USA 267 3.5 21:15:14 10° NE 21:21:26 45° SE 21:27:36 10° SSW
Envisat 2.9 21:18:04 17° SSE 21:22:00 72° ENE 21:27:03 10° N
Cosmos 1340 4.3 21:22:13 10° SSW 21:25:41 35° W 21:29:11 10° NNW
ATLAS CENTAUR R/B 3.2 21:22:37 10° SW 21:25:46 28° WNW 21:28:57 10° N
Stardust Del rocket 3.8 21:23:00 10° W 21:26:19 67° N 21:29:02 29° ENE
Delta 202 4.1 21:19:22 10° WSW 21:27:52 78° S 21:30:41 35° E
SAR-Lupe-3 4.4 21:25:27 10° NNE 21:28:56 70° E 21:28:56 70° E
Cosmos 2341 Rocket 3.9 21:24:27 10° S 21:30:48 74° E 21:37:08 10° N
Cosmos 2251 Rocket 4.0 21:25:57 10° N 21:30:55 38° ENE 21:31:05 38° E
ATLAS 3B CENTAUR R/B 2.8 21:19:18 10° WNW 21:33:39 86° NNE 21:36:07 41° ESE
Meteor 2-15 4.3 21:29:43 10° N 21:35:49 74° E 21:39:23 26° SSE
Cosmos 962 Rocket 4.3 21:29:45 10° S 21:35:52 86° E 21:42:00 10° N
Cosmos 2218 Rocket 4.4 21:37:27 39° E 21:37:27 39° E 21:43:01 10° NNE
ASTRO E2 4.4 21:37:05 10° W 21:40:38 30° NNW 21:42:07 23° NNE
NOSS 0 Rocket 4.5 21:38:34 10° SSW 21:44:35 58° WNW 21:50:39 10° N
Cosmos 1295 Rocket 4.5 21:39:00 10° S 21:45:20 84° W 21:51:41 10° N
SJ-6B 4.0 21:43:34 22° SSW 21:45:46 43° W 21:49:38 10° NNW
In-Cosmos 22 Rocket 4.4 21:41:07 10° NNW 21:46:25 63° W 21:50:02 20° S
Cosmos 1939 Rocket 3.9 21:50:31 35° N 21:50:31 35° N 21:52:52 10° N
Resurs 1-3 4.2 21:52:14 45° NNE 21:52:14 45° NNE 21:55:23 10° N
Cosmos 2344 4.4 21:44:56 10° S 21:58:41 15° NE 21:59:46 10° NE
Cosmos 1666 Rocket 3.9 21:54:08 10° N 21:58:12 65° WNW 21:58:12 65° WNW
Cosmos 1151 Rocket 4.4 22:01:27 32° N 22:01:27 32° N 22:03:47 10° N
SL-8 Rocket 3.8 21:57:20 42° S 21:59:38 83° E 22:05:57 10° N
Spot 2 Rocket 4.2 22:06:34 43° N 22:06:34 43° N 22:10:02 10° N
Meteor 2-3 Rocket 3.9 22:05:04 10° N 22:09:44 62° N 22:09:44 62° N
Sich 1 4.3 22:06:53 10° NNW 22:10:37 38° W 22:10:37 38° W
GEOS 3 Rocket 3.8 22:07:53 10° NNE 22:13:07 68° WNW 22:18:13 10° SW
ATLAS 2AS CENTAUR R/B 3.7 22:17:32 10° N 22:22:42 34° NNE 22:22:42 34° NNE
ATLAS 2A CENTAUR R/B 3.9 22:12:01 10° WSW 22:33:15 75° NNW 22:36:36 50° NE
Centaur D-1AR AC-41 3.9 22:25:11 10° W 22:33:29 56° WNW 22:33:29 56° WNW
Aurora 2 Rocket 4.4 22:30:08 10° WSW 22:35:21 42° WSW 22:35:21 42° WSW
BREEZE-M DEB (TANK) 4.1 22:29:28 10° NW 22:40:40 55° NW 22:40:40 55° NW
Cosmos 1844 Rocket 4.3 22:44:36 10° NW 22:48:27 30° W 22:48:27 30° W
Resurs 01 Rocket 4.5 22:53:39 15° WNW 22:53:39 15° WNW 22:54:49 10° NW
